,,,PA_Meas_PMT16A,,PR_Meas_QMR101_102,,RH_Meas_QMH101,,SR_Meas_QMS101,,TA_Meas_QMH101,,GenWind,,GenWind,
date,time,status,PA,status,PR,status,RH,status,SR,status,TA,status,DirAvg,status,SpdAvg,
2012-07-10, 00:00:04,VALID,1000.68,VALID,0,VALID,95.8585,VALID,0,VALID,23.5451,VALID,116,VALID,0.39375,
2012-07-10, 00:01:04,VALID,1000.69,VALID,0,VALID,95.8814,VALID,0,VALID,23.5433,VALID,116,VALID,0.413672,
2012-07-10, 00:02:04,VALID,1000.65,VALID,0,VALID,95.8738,VALID,0,VALID,23.5841,VALID,116,VALID,0.275781,
2012-07-10, 00:03:04,VALID,1000.66,VALID,0,VALID,95.8891,VALID,0,VALID,23.5841,VALID,116,VALID,0.179688,
2012-07-10, 00:04:04,VALID,1000.66,VALID,0,VALID,95.8891,VALID,0,VALID,23.5841,VALID,116,VALID,0.312891,
2012-07-10, 00:05:04,VALID,1000.68,VALID,0,VALID,95.8891,VALID,0,VALID,23.5841,VALID,116,VALID,0.224609,
2012-07-10, 00:06:04,VALID,1000.64,VALID,0,VALID,95.8738,VALID,0,VALID,23.5628,VALID,116,VALID,0.189844,
2012-07-10, 00:07:04,VALID,1000.63,VALID,0,VALID,95.9348,VALID,0,VALID,23.5646,VALID,116,VALID,0.284766,
2012-07-10, 00:08:04,VALID,1000.61,VALID,0,VALID,95.9043,VALID,0,VALID,23.5433,VALID,116,VALID,0.339453,
2012-07-10, 00:09:04,VALID,1000.61,VALID,0,VALID,95.9043,VALID,0,VALID,23.5646,VALID,116,VALID,0.370703,
2012-07-10, 00:10:04,VALID,1000.58,VALID,0,VALID,95.9043,VALID,0,VALID,23.5451,VALID,116,VALID,0.251563,
2012-07-10, 00:11:04,VALID,1000.55,VALID,0,VALID,95.912,VALID,0,VALID,23.5451,VALID,116,VALID,0.165234,
2012-07-10, 00:12:04,VALID,1000.53,VALID,0,VALID,95.9043,VALID,0,VALID,23.5646,VALID,116,VALID,0.0078125,
2012-07-10, 00:13:04,VALID,1000.53,VALID,0,VALID,95.912,VALID,0,VALID,23.5646,VALID,116,VALID,0,
2012-07-10, 00:14:04,VALID,1000.51,VALID,0,VALID,95.8891,VALID,0,VALID,23.5451,VALID,116,VALID,0.0359375,
2012-07-10, 00:15:04,VALID,1000.5,VALID,0,VALID,95.912,VALID,0,VALID,23.5433,VALID,116,VALID,0.156641,
2012-07-10, 00:16:04,VALID,1000.47,VALID,0,VALID,95.9043,VALID,0,VALID,23.5238,VALID,116,VALID,0.167969,
2012-07-10, 00:17:04,VALID,1000.47,VALID,0,VALID,95.8967,VALID,0,VALID,23.5451,VALID,116,VALID,0.198047,
2012-07-10, 00:18:04,VALID,1000.48,VALID,0,VALID,95.9043,VALID,0,VALID,23.5646,VALID,116,VALID,0.059375,
2012-07-10, 00:19:04,VALID,1000.44,VALID,0,VALID,95.8814,VALID,0,VALID,23.5238,VALID,116,VALID,0.040625,
2012-07-10, 00:20:04,VALID,1000.41,VALID,0,VALID,95.8891,VALID,0,VALID,23.5646,VALID,116,VALID,0.216406,
2012-07-10, 00:21:04,VALID,1000.46,VALID,0,VALID,95.8967,VALID,0,VALID,23.5841,VALID,116,VALID,0,
2012-07-10, 00:22:04,VALID,1000.44,VALID,0,VALID,95.8891,VALID,0,VALID,23.5646,VALID,116,VALID,0,
2012-07-10, 00:23:04,VALID,1000.45,VALID,0,VALID,95.9043,VALID,0,VALID,23.5433,VALID,116,VALID,0,
2012-07-10, 00:24:04,VALID,1000.44,VALID,0,VALID,95.9043,VALID,0,VALID,23.5646,VALID,116,VALID,0,
2012-07-10, 00:25:04,VALID,1000.46,VALID,0,VALID,95.8814,VALID,0,VALID,23.5451,VALID,116,VALID,0,
2012-07-10, 00:26:04,VALID,1000.45,VALID,0,VALID,95.8814,VALID,0,VALID,23.5433,VALID,116,VALID,0.0738281,
2012-07-10, 00:27:04,VALID,1000.44,VALID,0,VALID,95.8891,VALID,0,VALID,23.5451,VALID,116,VALID,0.345703,
2012-07-10, 00:28:04,VALID,1000.39,VALID,0,VALID,95.9043,VALID,0,VALID,23.5256,VALID,116,VALID,0.398438,
2012-07-10, 00:29:04,VALID,1000.38,VALID,0,VALID,95.8967,VALID,0,VALID,23.5256,VALID,357,VALID,0.674609,
2012-07-10, 00:30:04,VALID,1000.34,VALID,0,VALID,95.9043,VALID,0,VALID,23.4848,VALID,357,VALID,0.759375,
2012-07-10, 00:31:04,VALID,1000.31,VALID,0,VALID,95.912,VALID,0,VALID,23.5061,VALID,326,VALID,0.803516,
2012-07-10, 00:32:04,VALID,1000.3,VALID,0,VALID,95.8814,VALID,0,VALID,23.4866,VALID,326,VALID,0.832812,
2012-07-10, 00:33:04,VALID,1000.29,VALID,0,VALID,95.8967,VALID,0,VALID,23.5061,VALID,326,VALID,0.625781,
2012-07-10, 00:34:04,VALID,1000.28,VALID,0,VALID,95.8738,VALID,0,VALID,23.4866,VALID,326,VALID,0.650781,
2012-07-10, 00:35:04,VALID,1000.25,VALID,0,VALID,95.912,VALID,0,VALID,23.4866,VALID,326,VALID,0.50625,
2012-07-10, 00:36:04,VALID,1000.24,VALID,0,VALID,95.8967,VALID,0,VALID,23.5061,VALID,326,VALID,0.413672,
2012-07-10, 00:37:04,VALID,1000.22,VALID,0,VALID,95.8891,VALID,0,VALID,23.4866,VALID,326,VALID,0.332422,
2012-07-10, 00:38:04,VALID,1000.19,VALID,0,VALID,95.912,VALID,0,VALID,23.4671,VALID,326,VALID,0.157031,
2012-07-10, 00:39:04,VALID,1000.19,VALID,0,VALID,95.8891,VALID,0,VALID,23.4458,VALID,326,VALID,0,
2012-07-10, 00:40:04,VALID,1000.2,VALID,0,VALID,95.8891,VALID,0,VALID,23.4671,VALID,326,VALID,0,
2012-07-10, 00:41:04,VALID,1000.14,VALID,0,VALID,95.8967,VALID,0,VALID,23.4475,VALID,326,VALID,0,
2012-07-10, 00:42:04,VALID,1000.13,VALID,0,VALID,95.8967,VALID,0,VALID,23.4475,VALID,326,VALID,0,
2012-07-10, 00:43:04,VALID,1000.16,VALID,0,VALID,95.8891,VALID,0,VALID,23.428,VALID,326,VALID,0,
2012-07-10, 00:44:04,VALID,1000.15,VALID,0,VALID,95.9196,VALID,0,VALID,23.428,VALID,326,VALID,0,
2012-07-10, 00:45:04,VALID,1000.14,VALID,0,VALID,95.9196,VALID,0,VALID,23.4085,VALID,326,VALID,0,
2012-07-10, 00:46:04,VALID,1000.12,VALID,0,VALID,95.8967,VALID,0,VALID,23.389,VALID,326,VALID,0,
2012-07-10, 00:47:04,VALID,1000.1,VALID,0,VALID,95.9043,VALID,0,VALID,23.389,VALID,326,VALID,0,
2012-07-10, 00:48:04,VALID,1000.12,VALID,0,VALID,95.9501,VALID,0,VALID,23.35,VALID,326,VALID,0,
2012-07-10, 00:49:04,VALID,1000.11,VALID,0,VALID,95.9272,VALID,0,VALID,23.3305,VALID,333,VALID,0.778516,
2012-07-10, 00:50:04,VALID,1000.14,VALID,0,VALID,95.8967,VALID,0,VALID,23.35,VALID,50,VALID,0.853906,
2012-07-10, 00:51:04,VALID,1000.11,VALID,0,VALID,95.912,VALID,0,VALID,23.35,VALID,54,VALID,0.821094,
2012-07-10, 00:52:04,VALID,1000.08,VALID,0,VALID,95.9043,VALID,0,VALID,23.3305,VALID,56,VALID,0.922656,
2012-07-10, 00:53:04,VALID,1000.11,VALID,0,VALID,95.8967,VALID,0,VALID,23.2897,VALID,56,VALID,0.787891,
2012-07-10, 00:54:04,VALID,1000.09,VALID,0,VALID,95.9425,VALID,0,VALID,23.2702,VALID,56,VALID,0.751172,
2012-07-10, 00:55:04,VALID,1000.07,VALID,0,VALID,95.9348,VALID,0,VALID,23.2524,VALID,56,VALID,0.888281,
2012-07-10, 00:56:04,VALID,1000.07,VALID,0,VALID,95.9501,VALID,0,VALID,23.2719,VALID,56,VALID,0.905469,
2012-07-10, 00:57:04,VALID,1000.06,VALID,0,VALID,95.9501,VALID,0,VALID,23.2719,VALID,56,VALID,0.827734,
2012-07-10, 00:58:04,VALID,1000.05,VALID,0,VALID,95.9272,VALID,0,VALID,23.2719,VALID,56,VALID,0.920703,
2012-07-10, 00:59:04,VALID,1000.05,VALID,0,VALID,95.9425,VALID,0,VALID,23.2312,VALID,56,VALID,0.8625,
2012-07-10, 01:00:04,VALID,1000.02,VALID,0,VALID,95.9348,VALID,0,VALID,23.2329,VALID,56,VALID,0.869141,
2012-07-10, 01:01:04,VALID,999.977,VALID,0,VALID,95.9348,VALID,0,VALID,23.2329,VALID,56,VALID,0.944141,
2012-07-10, 01:02:04,VALID,999.995,VALID,0,VALID,95.9348,VALID,0,VALID,23.2117,VALID,56,VALID,1.03242,
2012-07-10, 01:03:04,VALID,999.972,VALID,0,VALID,95.9425,VALID,0,VALID,23.1939,VALID,56,VALID,0.858203,
2012-07-10, 01:04:04,VALID,999.987,VALID,0,VALID,95.9577,VALID,0,VALID,23.1939,VALID,56,VALID,0.489062,
2012-07-10, 01:05:04,VALID,999.964,VALID,0,VALID,95.973,VALID,0,VALID,23.1744,VALID,56,VALID,0.521094,
2012-07-10, 01:06:04,VALID,999.979,VALID,0,VALID,95.9425,VALID,0,VALID,23.1549,VALID,46,VALID,0.552734,
2012-07-10, 01:07:04,VALID,1000,VALID,0,VALID,95.973,VALID,0,VALID,23.1354,VALID,46,VALID,0.522656,
2012-07-10, 01:08:04,VALID,999.994,VALID,0,VALID,95.9806,VALID,0,VALID,23.0964,VALID,46,VALID,0.985156,
2012-07-10, 01:09:04,VALID,999.983,VALID,0,VALID,95.9806,VALID,0,VALID,23.0769,VALID,46,VALID,1.19531,
2012-07-10, 01:10:04,VALID,1000.03,VALID,0,VALID,95.9501,VALID,0,VALID,23.0964,VALID,49,VALID,1.02852,
2012-07-10, 01:11:04,VALID,999.99,VALID,0,VALID,95.9577,VALID,0,VALID,23.0769,VALID,42,VALID,0.770703,
2012-07-10, 01:12:04,VALID,1000,VALID,0,VALID,95.9806,VALID,0,VALID,23.0573,VALID,11,VALID,0.986719,
2012-07-10, 01:13:04,VALID,1000.01,VALID,0,VALID,95.9654,VALID,0,VALID,23.0378,VALID,9,VALID,0.906641,
2012-07-10, 01:14:04,VALID,1000.02,VALID,0,VALID,95.9577,VALID,0,VALID,23.0183,VALID,7,VALID,0.798828,
2012-07-10, 01:15:04,VALID,999.993,VALID,0,VALID,95.973,VALID,0,VALID,23.0378,VALID,7,VALID,0.686719,
2012-07-10, 01:16:04,VALID,1000.04,VALID,0,VALID,95.9501,VALID,0,VALID,23.0378,VALID,7,VALID,0.276563,
2012-07-10, 01:17:04,VALID,1000.05,VALID,0,VALID,95.9806,VALID,0,VALID,23.0183,VALID,8,VALID,0.559375,
2012-07-10, 01:18:04,VALID,1000.05,VALID,0,VALID,95.9654,VALID,0,VALID,22.9598,VALID,41,VALID,1.24961,
2012-07-10, 01:19:04,VALID,1000.06,VALID,0,VALID,95.9577,VALID,0,VALID,22.9598,VALID,42,VALID,1.27852,
2012-07-10, 01:20:04,VALID,1000.02,VALID,0,VALID,95.9425,VALID,0,VALID,22.9793,VALID,42,VALID,0.995313,
2012-07-10, 01:21:04,VALID,1000.03,VALID,0,VALID,95.9348,VALID,0,VALID,22.9793,VALID,42,VALID,0.854688,
2012-07-10, 01:22:04,VALID,1000,VALID,0,VALID,95.912,VALID,0,VALID,22.9385,VALID,42,VALID,0.903906,
2012-07-10, 01:23:04,VALID,1000.02,VALID,0,VALID,95.9196,VALID,0,VALID,22.9403,VALID,42,VALID,1.07187,
2012-07-10, 01:24:04,VALID,1000.01,VALID,0,VALID,95.8814,VALID,0,VALID,22.9403,VALID,42,VALID,0.955078,
2012-07-10, 01:25:04,VALID,1000.02,VALID,0,VALID,95.8891,VALID,0,VALID,22.9208,VALID,42,VALID,0.830078,
2012-07-10, 01:26:04,VALID,1000.03,VALID,0,VALID,95.8509,VALID,0,VALID,22.9013,VALID,42,VALID,0.612109,
2012-07-10, 01:27:04,VALID,1000.01,VALID,0,VALID,95.8662,VALID,0,VALID,22.88,VALID,42,VALID,0.557031,
2012-07-10, 01:28:04,VALID,1000.03,VALID,0,VALID,95.8509,VALID,0,VALID,22.8818,VALID,42,VALID,0.46875,
2012-07-10, 01:29:04,VALID,1000.01,VALID,0,VALID,95.8662,VALID,0,VALID,22.8605,VALID,42,VALID,0.250391,
2012-07-10, 01:30:04,VALID,1000,VALID,0,VALID,95.8585,VALID,0,VALID,22.841,VALID,42,VALID,0.00898437,
2012-07-10, 01:31:04,VALID,1000,VALID,0,VALID,95.8433,VALID,0,VALID,22.8427,VALID,42,VALID,0.0207031,
2012-07-10, 01:32:04,VALID,1000.02,VALID,0,VALID,95.8662,VALID,0,VALID,22.8215,VALID,42,VALID,0,
2012-07-10, 01:33:04,VALID,1000.02,VALID,0,VALID,95.8662,VALID,0,VALID,22.8232,VALID,42,VALID,0,
2012-07-10, 01:34:04,VALID,999.994,VALID,0,VALID,95.8585,VALID,0,VALID,22.8232,VALID,42,VALID,0,
2012-07-10, 01:35:04,VALID,1000,VALID,0,VALID,95.8662,VALID,0,VALID,22.8427,VALID,42,VALID,0,
2012-07-10, 01:36:04,VALID,999.97,VALID,0,VALID,95.8891,VALID,0,VALID,22.8427,VALID,42,VALID,0.133984,
2012-07-10, 01:37:04,VALID,1000.01,VALID,0,VALID,95.8891,VALID,0,VALID,22.8427,VALID,42,VALID,0.210156,
2012-07-10, 01:38:04,VALID,999.986,VALID,0,VALID,95.912,VALID,0,VALID,22.802,VALID,42,VALID,0.124219,
2012-07-10, 01:39:04,VALID,999.961,VALID,0,VALID,95.912,VALID,0,VALID,22.8232,VALID,42,VALID,0.246094,
2012-07-10, 01:40:04,VALID,999.949,VALID,0,VALID,95.9196,VALID,0,VALID,22.802,VALID,42,VALID,0.00585938,
2012-07-10, 01:41:04,VALID,999.926,VALID,0,VALID,95.9196,VALID,0,VALID,22.8037,VALID,42,VALID,0,
2012-07-10, 01:42:04,VALID,999.901,VALID,0,VALID,95.9348,VALID,0,VALID,22.7842,VALID,42,VALID,0.263672,
2012-07-10, 01:43:04,VALID,999.908,VALID,0,VALID,95.9272,VALID,0,VALID,22.8037,VALID,42,VALID,0.501562,
2012-07-10, 01:44:04,VALID,999.895,VALID,0,VALID,95.9348,VALID,0,VALID,22.7647,VALID,42,VALID,0.642578,
2012-07-10, 01:45:04,VALID,999.9,VALID,0,VALID,95.9577,VALID,0,VALID,22.7647,VALID,42,VALID,0.541016,
2012-07-10, 01:46:04,VALID,999.905,VALID,0,VALID,95.9425,VALID,0,VALID,22.7452,VALID,42,VALID,0.465234,
2012-07-10, 01:47:04,VALID,999.89,VALID,0,VALID,95.9577,VALID,0,VALID,22.7062,VALID,42,VALID,0.361719,
2012-07-10, 01:48:04,VALID,999.898,VALID,0,VALID,95.9654,VALID,0,VALID,22.7257,VALID,42,VALID,0.227344,
2012-07-10, 01:49:04,VALID,999.899,VALID,0,VALID,95.9348,VALID,0,VALID,22.7257,VALID,42,VALID,0.189063,
2012-07-10, 01:50:04,VALID,999.893,VALID,0,VALID,95.973,VALID,0,VALID,22.7045,VALID,42,VALID,0.308594,
2012-07-10, 01:51:04,VALID,999.912,VALID,0,VALID,95.9654,VALID,0,VALID,22.7045,VALID,42,VALID,0.419141,
2012-07-10, 01:52:04,VALID,999.895,VALID,0,VALID,95.9501,VALID,0,VALID,22.7062,VALID,42,VALID,0.452344,
2012-07-10, 01:53:04,VALID,999.88,VALID,0,VALID,95.9654,VALID,0,VALID,22.7257,VALID,42,VALID,0.612891,
2012-07-10, 01:54:04,VALID,999.892,VALID,0,VALID,95.9959,VALID,0,VALID,22.6867,VALID,42,VALID,0.766797,
2012-07-10, 01:55:04,VALID,999.861,VALID,0,VALID,96.0035,VALID,0,VALID,22.6264,VALID,42,VALID,0.933203,
2012-07-10, 01:56:04,VALID,999.865,VALID,0,VALID,95.9883,VALID,0,VALID,22.6282,VALID,42,VALID,0.957031,
2012-07-10, 01:57:04,VALID,999.86,VALID,0,VALID,95.9883,VALID,0,VALID,22.6282,VALID,42,VALID,0.781641,
2012-07-10, 01:58:04,VALID,999.84,VALID,0,VALID,95.9959,VALID,0,VALID,22.6282,VALID,42,VALID,0.537891,
2012-07-10, 01:59:04,VALID,999.814,VALID,0,VALID,96.0035,VALID,0,VALID,22.6087,VALID,42,VALID,0.332422,
2012-07-10, 02:00:04,VALID,999.809,VALID,0,VALID,96.0035,VALID,0,VALID,22.5679,VALID,42,VALID,0.352734,
2012-07-10, 02:01:04,VALID,999.794,VALID,0,VALID,95.9883,VALID,0,VALID,22.5874,VALID,42,VALID,0.488281,
2012-07-10, 02:02:04,VALID,999.767,VALID,0,VALID,95.973,VALID,0,VALID,22.6069,VALID,42,VALID,0.482031,
2012-07-10, 02:03:04,VALID,999.766,VALID,0,VALID,95.973,VALID,0,VALID,22.6264,VALID,42,VALID,0.374219,
2012-07-10, 02:04:04,VALID,999.783,VALID,0,VALID,95.973,VALID,0,VALID,22.6672,VALID,42,VALID,0.425391,
2012-07-10, 02:05:04,VALID,999.779,VALID,0,VALID,95.9806,VALID,0,VALID,22.6672,VALID,42,VALID,0.330078,
2012-07-10, 02:06:04,VALID,999.758,VALID,0,VALID,95.9883,VALID,0,VALID,22.7062,VALID,42,VALID,0.426172,
2012-07-10, 02:07:04,VALID,999.798,VALID,0,VALID,95.9806,VALID,0,VALID,22.7257,VALID,42,VALID,0.372266,
2012-07-10, 02:08:04,VALID,999.775,VALID,0,VALID,95.9654,VALID,0,VALID,22.7257,VALID,42,VALID,0.237109,
2012-07-10, 02:09:04,VALID,999.822,VALID,0,VALID,95.9501,VALID,0,VALID,22.7452,VALID,42,VALID,0.165625,
2012-07-10, 02:10:04,VALID,999.828,VALID,0,VALID,95.9501,VALID,0,VALID,22.7647,VALID,42,VALID,0.310547,
2012-07-10, 02:11:04,VALID,999.831,VALID,0,VALID,95.9577,VALID,0,VALID,22.7435,VALID,42,VALID,0.523828,
2012-07-10, 02:12:04,VALID,999.831,VALID,0,VALID,95.9654,VALID,0,VALID,22.7647,VALID,42,VALID,0.526172,
2012-07-10, 02:13:04,VALID,999.847,VALID,0,VALID,95.9806,VALID,0,VALID,22.7647,VALID,42,VALID,0.433984,
2012-07-10, 02:14:04,VALID,999.852,VALID,0,VALID,95.9806,VALID,0,VALID,22.7452,VALID,42,VALID,0.317969,
2012-07-10, 02:15:04,VALID,999.853,VALID,0,VALID,95.973,VALID,0,VALID,22.7045,VALID,42,VALID,0.280859,
2012-07-10, 02:16:04,VALID,999.879,VALID,0,VALID,95.9959,VALID,0,VALID,22.7452,VALID,42,VALID,0.257422,
2012-07-10, 02:17:04,VALID,999.855,VALID,0,VALID,95.9959,VALID,0,VALID,22.7257,VALID,42,VALID,0.409766,
2012-07-10, 02:18:04,VALID,999.85,VALID,0,VALID,95.9883,VALID,0,VALID,22.724,VALID,42,VALID,0.166406,
2012-07-10, 02:19:04,VALID,999.842,VALID,0,VALID,96.0111,VALID,0,VALID,22.7045,VALID,42,VALID,0.0078125,
2012-07-10, 02:20:04,VALID,999.828,VALID,0,VALID,96.0264,VALID,0,VALID,22.7045,VALID,42,VALID,0,
2012-07-10, 02:21:04,VALID,999.822,VALID,0,VALID,96.0111,VALID,0,VALID,22.685,VALID,42,VALID,0,
2012-07-10, 02:22:04,VALID,999.808,VALID,0,VALID,95.9959,VALID,0,VALID,22.6867,VALID,42,VALID,0,
2012-07-10, 02:23:04,VALID,999.787,VALID,0,VALID,95.9959,VALID,0,VALID,22.7062,VALID,42,VALID,0,
2012-07-10, 02:24:04,VALID,999.793,VALID,0,VALID,95.9883,VALID,0,VALID,22.7062,VALID,42,VALID,0,
2012-07-10, 02:25:04,VALID,999.786,VALID,0,VALID,95.9806,VALID,0,VALID,22.7062,VALID,42,VALID,0,
2012-07-10, 02:26:04,VALID,999.764,VALID,0,VALID,95.9577,VALID,0,VALID,22.7257,VALID,42,VALID,0,
2012-07-10, 02:27:04,VALID,999.753,VALID,0,VALID,95.9425,VALID,0,VALID,22.724,VALID,42,VALID,0,
2012-07-10, 02:28:04,VALID,999.725,VALID,0,VALID,95.9425,VALID,0,VALID,22.7647,VALID,42,VALID,0,
2012-07-10, 02:29:04,VALID,999.735,VALID,0,VALID,95.9577,VALID,0,VALID,22.7842,VALID,42,VALID,0,
2012-07-10, 02:30:04,VALID,999.731,VALID,0,VALID,95.9425,VALID,0,VALID,22.7842,VALID,42,VALID,0,
2012-07-10, 02:31:04,VALID,999.743,VALID,0,VALID,95.9577,VALID,0,VALID,22.7842,VALID,42,VALID,0,
2012-07-10, 02:32:04,VALID,999.723,VALID,0,VALID,95.9806,VALID,0,VALID,22.7435,VALID,42,VALID,0,
2012-07-10, 02:33:04,VALID,999.708,VALID,0,VALID,95.973,VALID,0,VALID,22.7647,VALID,42,VALID,0,
2012-07-10, 02:34:04,VALID,999.68,VALID,0,VALID,95.9806,VALID,0,VALID,22.7647,VALID,42,VALID,0,
2012-07-10, 02:35:04,VALID,999.668,VALID,0,VALID,95.9959,VALID,0,VALID,22.7647,VALID,42,VALID,0,
2012-07-10, 02:36:04,VALID,999.686,VALID,0,VALID,95.9959,VALID,0,VALID,22.724,VALID,42,VALID,0,
2012-07-10, 02:37:04,VALID,999.678,VALID,0,VALID,95.9883,VALID,0,VALID,22.7045,VALID,42,VALID,0,
2012-07-10, 02:38:04,VALID,999.674,VALID,0,VALID,95.9883,VALID,0,VALID,22.7062,VALID,42,VALID,0,
2012-07-10, 02:39:04,VALID,999.697,VALID,0,VALID,96.0035,VALID,0,VALID,22.6867,VALID,42,VALID,0,
2012-07-10, 02:40:04,VALID,999.704,VALID,0,VALID,95.9959,VALID,0,VALID,22.6655,VALID,42,VALID,0,
2012-07-10, 02:41:04,VALID,999.699,VALID,0,VALID,95.9883,VALID,0,VALID,22.646,VALID,42,VALID,0,
2012-07-10, 02:42:04,VALID,999.742,VALID,0,VALID,96.0035,VALID,0,VALID,22.6672,VALID,42,VALID,0,
2012-07-10, 02:43:04,VALID,999.726,VALID,0,VALID,95.9654,VALID,0,VALID,22.646,VALID,42,VALID,0,
2012-07-10, 02:44:04,VALID,999.749,VALID,0,VALID,95.973,VALID,0.104696,VALID,22.6655,VALID,42,VALID,0,
2012-07-10, 02:45:04,VALID,999.756,VALID,0,VALID,95.973,VALID,0,VALID,22.6672,VALID,42,VALID,0,
2012-07-10, 02:46:04,VALID,999.74,VALID,0,VALID,95.9577,VALID,0,VALID,22.6867,VALID,42,VALID,0,
2012-07-10, 02:47:04,VALID,999.742,VALID,0,VALID,95.9883,VALID,0,VALID,22.6477,VALID,42,VALID,0,
2012-07-10, 02:48:04,VALID,999.767,VALID,0,VALID,96.0111,VALID,0,VALID,22.6282,VALID,42,VALID,0,
2012-07-10, 02:49:04,VALID,999.752,VALID,0,VALID,96.0111,VALID,0,VALID,22.5679,VALID,42,VALID,0,
2012-07-10, 02:50:04,VALID,999.751,VALID,0,VALID,96.0264,VALID,0,VALID,22.5714,VALID,42,VALID,0.155859,
2012-07-10, 02:51:04,VALID,999.725,VALID,0,VALID,95.9883,VALID,0,VALID,22.5696,VALID,42,VALID,0.691406,
2012-07-10, 02:52:04,VALID,999.679,VALID,0,VALID,95.9806,VALID,0,VALID,22.5909,VALID,42,VALID,0.875,
2012-07-10, 02:53:04,VALID,999.691,VALID,0,VALID,95.9806,VALID,0,VALID,22.5714,VALID,42,VALID,0.961719,
2012-07-10, 02:54:04,VALID,999.675,VALID,0,VALID,96.0035,VALID,0,VALID,22.5519,VALID,42,VALID,0.953906,
2012-07-10, 02:55:04,VALID,999.648,VALID,0,VALID,95.9883,VALID,0,VALID,22.5323,VALID,42,VALID,0.916797,
2012-07-10, 02:56:04,VALID,999.618,VALID,0,VALID,95.9883,VALID,0,VALID,22.5323,VALID,42,VALID,0.791016,
2012-07-10, 02:57:04,VALID,999.594,VALID,0,VALID,95.9806,VALID,0,VALID,22.4721,VALID,42,VALID,0.619531,
2012-07-10, 02:58:04,VALID,999.569,VALID,0,VALID,95.9654,VALID,0,VALID,22.5323,VALID,42,VALID,0.549609,
2012-07-10, 02:59:04,VALID,999.545,VALID,0,VALID,95.9425,VALID,0,VALID,22.5519,VALID,42,VALID,0.523047,
2012-07-10, 03:00:04,VALID,999.54,VALID,0,VALID,95.9654,VALID,0,VALID,22.5519,VALID,42,VALID,0.496875,
2012-07-10, 03:01:04,VALID,999.528,VALID,0,VALID,95.9806,VALID,0,VALID,22.5111,VALID,42,VALID,0.663672,
2012-07-10, 03:02:04,VALID,999.492,VALID,0,VALID,95.9501,VALID,0,VALID,22.5714,VALID,42,VALID,0.741797,
2012-07-10, 03:03:04,VALID,999.487,VALID,0,VALID,95.9272,VALID,0,VALID,22.5714,VALID,46,VALID,0.885938,
2012-07-10, 03:04:04,VALID,999.468,VALID,0,VALID,95.9501,VALID,0,VALID,22.5501,VALID,46,VALID,0.913281,
2012-07-10, 03:05:04,VALID,999.474,VALID,0,VALID,95.9577,VALID,0,VALID,22.5094,VALID,50,VALID,0.946094,
2012-07-10, 03:06:04,VALID,999.458,VALID,0,VALID,96.0111,VALID,0,VALID,22.4721,VALID,50,VALID,0.973437,
2012-07-10, 03:07:04,VALID,999.464,VALID,0,VALID,96.0188,VALID,0,VALID,22.4526,VALID,50,VALID,0.996875,
2012-07-10, 03:08:04,VALID,999.458,VALID,0,VALID,96.034,VALID,0.104696,VALID,22.3924,VALID,50,VALID,0.824609,
2012-07-10, 03:09:04,VALID,999.456,VALID,0,VALID,96.0493,VALID,0,VALID,22.3339,VALID,50,VALID,0.566016,
2012-07-10, 03:10:04,VALID,999.438,VALID,0,VALID,96.0951,VALID,0,VALID,22.2771,VALID,50,VALID,0.438672,
2012-07-10, 03:11:04,VALID,999.477,VALID,0,VALID,96.0951,VALID,0,VALID,22.2381,VALID,50,VALID,0.154687,
2012-07-10, 03:12:04,VALID,999.46,VALID,0,VALID,96.1027,VALID,0,VALID,22.1974,VALID,50,VALID,0,
2012-07-10, 03:13:04,VALID,999.44,VALID,0,VALID,96.0874,VALID,0,VALID,22.1389,VALID,50,VALID,0,
2012-07-10, 03:14:04,VALID,999.453,VALID,0,VALID,96.0798,VALID,0,VALID,22.16,VALID,50,VALID,0,
2012-07-10, 03:15:04,VALID,999.467,VALID,0,VALID,96.0645,VALID,0,VALID,22.16,VALID,50,VALID,0.0207031,
2012-07-10, 03:16:04,VALID,999.448,VALID,0,VALID,96.0493,VALID,0,VALID,22.199,VALID,50,VALID,0.0289063,
2012-07-10, 03:17:05,VALID,999.423,VALID,0,VALID,96.034,VALID,0,VALID,22.199,VALID,50,VALID,0.0375,
2012-07-10, 03:18:05,VALID,999.444,VALID,0,VALID,96.0264,VALID,0,VALID,22.2364,VALID,50,VALID,0.332422,
2012-07-10, 03:19:05,VALID,999.425,VALID,0,VALID,95.9806,VALID,0,VALID,22.2966,VALID,50,VALID,0.253125,
2012-07-10, 03:20:05,VALID,999.422,VALID,0,VALID,95.9806,VALID,0,VALID,22.2966,VALID,50,VALID,0.491406,
2012-07-10, 03:21:05,VALID,999.402,VALID,0,VALID,95.9806,VALID,0,VALID,22.3551,VALID,50,VALID,0.175781,
2012-07-10, 03:22:05,VALID,999.392,VALID,0,VALID,95.9654,VALID,0,VALID,22.3729,VALID,50,VALID,0.00351562,
2012-07-10, 03:23:05,VALID,999.367,VALID,0,VALID,95.9577,VALID,0,VALID,22.3941,VALID,50,VALID,0.00078125,
2012-07-10, 03:24:05,VALID,999.408,VALID,0,VALID,95.9043,VALID,0,VALID,22.4721,VALID,50,VALID,0.253516,
2012-07-10, 03:25:05,VALID,999.384,VALID,0,VALID,95.8814,VALID,0,VALID,22.5306,VALID,50,VALID,0.512891,
2012-07-10, 03:26:05,VALID,999.38,VALID,0,VALID,95.8891,VALID,0,VALID,22.5696,VALID,50,VALID,0.564453,
2012-07-10, 03:27:05,VALID,999.371,VALID,0,VALID,95.9043,VALID,0,VALID,22.5501,VALID,50,VALID,0.561328,
2012-07-10, 03:28:05,VALID,999.396,VALID,0,VALID,95.8967,VALID,0,VALID,22.5289,VALID,50,VALID,0.398828,
2012-07-10, 03:29:05,VALID,999.373,VALID,0,VALID,95.9272,VALID,0,VALID,22.5696,VALID,50,VALID,0.471875,
2012-07-10, 03:30:05,VALID,999.375,VALID,0,VALID,95.9043,VALID,0,VALID,22.5696,VALID,50,VALID,0.485156,
2012-07-10, 03:31:05,VALID,999.377,VALID,0,VALID,95.9501,VALID,0,VALID,22.5696,VALID,50,VALID,0.373437,
2012-07-10, 03:32:05,VALID,999.357,VALID,0,VALID,95.9196,VALID,0,VALID,22.6087,VALID,50,VALID,0.421875,
2012-07-10, 03:33:05,VALID,999.355,VALID,0,VALID,95.912,VALID,0,VALID,22.6282,VALID,50,VALID,0.240625,
2012-07-10, 03:34:05,VALID,999.349,VALID,0,VALID,95.9272,VALID,0,VALID,22.6477,VALID,50,VALID,0.541406,
2012-07-10, 03:35:05,VALID,999.345,VALID,0,VALID,95.9425,VALID,0,VALID,22.6264,VALID,50,VALID,0.267188,
2012-07-10, 03:36:05,VALID,999.341,VALID,0,VALID,95.9272,VALID,0,VALID,22.6477,VALID,50,VALID,0.541406,
2012-07-10, 03:37:05,VALID,999.361,VALID,0,VALID,95.9577,VALID,0,VALID,22.6282,VALID,53,VALID,0.562891,
2012-07-10, 03:38:05,VALID,999.331,VALID,0,VALID,95.9959,VALID,0,VALID,22.5679,VALID,53,VALID,0.313281,
2012-07-10, 03:39:05,VALID,999.359,VALID,0,VALID,96.0188,VALID,0.104696,VALID,22.5679,VALID,53,VALID,0.483594,
2012-07-10, 03:40:05,VALID,999.381,VALID,0,VALID,96.0111,VALID,0,VALID,22.5892,VALID,56,VALID,0.606641,
2012-07-10, 03:41:05,VALID,999.34,VALID,0,VALID,96.034,VALID,0,VALID,22.5679,VALID,116,VALID,0.819531,
2012-07-10, 03:42:05,VALID,999.322,VALID,0,VALID,96.0493,VALID,0,VALID,22.5892,VALID,116,VALID,0.520312,
2012-07-10, 03:43:05,VALID,999.34,VALID,0,VALID,96.0569,VALID,0,VALID,22.5892,VALID,116,VALID,0.543359,
2012-07-10, 03:44:05,VALID,999.331,VALID,0,VALID,96.0951,VALID,0,VALID,22.5696,VALID,116,VALID,0.239453,
2012-07-10, 03:45:05,VALID,999.342,VALID,0,VALID,96.0951,VALID,0,VALID,22.5094,VALID,116,VALID,0.387109,
2012-07-10, 03:46:05,VALID,999.337,VALID,0,VALID,96.1103,VALID,0,VALID,22.5111,VALID,116,VALID,0.226172,
2012-07-10, 03:47:05,VALID,999.378,VALID,0,VALID,96.1256,VALID,0,VALID,22.4916,VALID,116,VALID,0.492578,
2012-07-10, 03:48:05,VALID,999.394,VALID,0,VALID,96.1256,VALID,0,VALID,22.4721,VALID,115,VALID,0.735547,
2012-07-10, 03:49:05,VALID,999.426,VALID,0,VALID,96.1332,VALID,0,VALID,22.4721,VALID,107,VALID,0.715625,